This is the latest recevied weather packets stored in our database for station/object HB9TJM-8. If no packets are shown the sender has not sent any weather packets the latest 10 day(s).
| Time | Temp. | Humidity | Pressure | Rain* | Wind** | Luminosity | Snow |
|---|---|---|---|---|---|---|---|
| 1777924089 | 8.33° C | 97% | 1014.3 hPa | 0 mm | - | 0 W/m² | - |
| 1777923781 | 8.33° C | 97% | 1014.1 hPa | 0 mm | - | 0 W/m² | - |
| 1777923474 | 8.33° C | 97% | 1014.2 hPa | 0 mm | - | 0 W/m² | - |
| 1777923166 | 8.33° C | 97% | 1014.1 hPa | 0 mm | - | 0 W/m² | - |
| 1777922858 | 8.33° C | 97% | 1014.3 hPa | 0 mm | - | 0 W/m² | - |
| 1777922551 | 8.33° C | 97% | 1014.3 hPa | 0 mm | - | 0 W/m² | - |
| 1777922243 | 8.33° C | 97% | 1014.3 hPa | 0 mm | - | 0 W/m² | - |
| 1777921936 | 8.89° C | 97% | 1014.5 hPa | 0 mm | - | 0 W/m² | - |
| 1777920707 | 8.89° C | 96% | 1014.7 hPa | 0 mm | - | 1 W/m² | - |
| 1777920399 | 8.89° C | 96% | 1014.1 hPa | 0 mm | - | 1 W/m² | - |
| 1777919783 | 8.89° C | 95% | 1014.7 hPa | 0 mm | - | 3 W/m² | - |
| 1777919476 | 8.89° C | 95% | 1014.5 hPa | 0 mm | - | 5 W/m² | - |
| 1777919168 | 8.89° C | 95% | 1014.3 hPa | 0 mm | - | 8 W/m² | - |
| 1777918861 | 8.89° C | 94% | 1014.3 hPa | 0 mm | - | 11 W/m² | - |
| 1777918245 | 8.89° C | 93% | 1014.6 hPa | 0 mm | - | 19 W/m² | - |
| 1777917016 | 9.44° C | 91% | 1014.5 hPa | 0 mm | - | 43 W/m² | - |
| 1777916709 | 9.44° C | 88% | 1014.3 hPa | 0 mm | - | 54 W/m² | - |
| 1777916708 | 9.44° C | 88% | 1014.3 hPa | 0 mm | - | 54 W/m² | - |
| 1777916401 | 9.44° C | 90% | 1014.5 hPa | 0 mm | - | 64 W/m² | - |
| 1777916093 | 9.44° C | 89% | 1014.8 hPa | 0 mm | - | 64 W/m² | - |
| 1777916093 | 9.44° C | 89% | 1014.8 hPa | 0 mm | - | 64 W/m² | - |
| 1777915786 | 9.44° C | 90% | 1014.7 hPa | 0 mm | - | 59 W/m² | - |
| 1777915478 | 9.44° C | 89% | 1014.7 hPa | 0 mm | - | 62 W/m² | - |
| 1777915171 | 9.44° C | 89% | 1014.5 hPa | 0 mm | - | 63 W/m² | - |
| 1777915171 | 9.44° C | 89% | 1014.5 hPa | 0 mm | - | 63 W/m² | - |
* Rain latest hour (hover to see other rain measurements)
** Current wind speed in m/s (hover to see current wind gust speed)